Regional Weather Roundup
Issued by NWS State College, PA

Home | Current Version | Previous Version | Graphics & Text | Print | Product List | Glossary On
Versions: 1 2 3 4 5 6 7 8 9 10 11 12 13 14 15 16 17 18 19 20 21 22 23 24 25 26 27 28 29 30 31 32 33 34 35 36 37 38 39 40 41 42 43 44 45 46 47 48 49 50
000
ASUS41 KCTP 292103
RWRCTP

REGIONAL WEATHER ROUNDUP
NATIONAL WEATHER SERVICE STATE COLLEGE PA
500 PM EDT SAT APR 29 2017

Note: "fair" indicates few or no clouds below 12,000 feet with no
significant weather and/or obstructions to visibility.

* = STATION THAT DOES NOT REPORT PRECIPITATION /E.G. RAIN...SNOW...ETC/
    THUNDER OR FOG.

PAZ002>004-007>009-013>016-020>023-029>032-292200-
WESTERN PENNSYLVANIA

CITY           SKY/WX    TMP DP  RH WIND       PRES   REMARKS
ERIE           CLOUDY    50  44  80 CALM      30.18F
MEADVILLE      CLOUDY    50  50 100 N8        30.16R FOG
FRANKLIN*      CLOUDY    54  50  87 N5        30.15R
NEW CASTLE     CLOUDY    57  55  93 N7        30.15R
BEAVER COUNTY  CLOUDY    66  61  82 N7        30.11F
BUTLER*        PTSUNNY   70  63  78 W6        30.11F
PITTSBURGH INT MOSUNNY   72  63  73 S7        30.09F
PITTSBURGH     SUNNY     73  61  65 SW9       30.09F
INDIANA*       PTSUNNY   72  64  78 SW8       30.13S
LATROBE        SUNNY     73  64  73 SW9       30.11F
WASHINGTON CO* SUNNY     73  63  68 SW9       30.11F
$$

PAZ004>006-010>012-017>019-024>028-033>037-041-042-045-046-049>053-292200-
CENTRAL PENNSYLVANIA

CITY           SKY/WX    TMP DP  RH WIND       PRES   REMARKS
BRADFORD       CLOUDY    54  53  97 N7        30.15R
DUBOIS         CLOUDY    64  60  87 W10       30.11R
CLEARFIELD     CLOUDY    69  63  81 SW7       30.10S
JOHNSTOWN      MOSUNNY   73  59  61 W13G20    30.13F
ALTOONA        CLOUDY    78  60  53 SW12      30.10F
STATE COLLEGE  SUNNY     70  61  73 W12       30.07F
WILLIAMSPORT   PTSUNNY   74  62  66 SW5       30.04F
SELINSGROVE    CLOUDY    76  63  64 VRB5      30.05F
FT INDIANTOWN  CLOUDY    82  59  46 W15G23    30.04F
CAPITAL CITY   CLOUDY    83  62  49 W5        30.04F
HARRISBURG     CLOUDY    82  64  54 NW6       30.03F
YORK           CLOUDY    82  63  52 W6        30.05F
$$

PAZ038>040-043-044-047-048-054-055-060>062-067>071-292200-
EASTERN PENNSYLVANIA

CITY           SKY/WX    TMP DP  RH WIND       PRES   REMARKS
SCRANTON       LGT RAIN  72  58  61 W9G25     30.04F
MOUNT POCONO   CLOUDY    69  57  65 NW22G32   30.06F
ALLENTOWN      CLOUDY    80  60  50 NW15G25   30.04F
QUAKERTOWN*    PTCLDY    81  63  54 N8        30.06S
READING        CLOUDY    81  63  54 NW14      30.02F
LANCASTER      CLOUDY    81  65  58 W10       30.04F
COATESVILLE    CLOUDY    79  63  57 W9        30.07F
POTTSTOWN      PTSUNNY   80  60  50 W9        30.05F
BLUE BELL      CLOUDY    81  61  50 NW10G18   30.05F
DOYLESTOWN     NOT AVBL
WILLOW GROVE   NOT AVBL
NORTH PHILA    MOSUNNY   84  60  44 W15G23    30.04R
PHILADELPHIA   CLOUDY    85  57  38 NW15G28   30.03S
$$




USA.gov is the U.S. government's official web portal to all federal, state and local government web resources and services.